Location: Newark
(11.0000°N, 122.6717°E)
Time: 18:27:00
(UTC+00:00)

STARLINK 1064 - Pass Details

Date: 16 December 2019
Orbit: 549 x 551 km, 53.0° (Epoch: 17 January)

Event Time Altitude Azimuth Distance (km) Brightness Sun altitude
Rises 10:32:01 0° 213° (SSW) 2,703 8.1 -15.1°
Reaches altitude 10° 10:34:15 10° 211° (SSW) 1,809 7.0 -15.6°
Maximum altitude 10:38:20 80° 126° (SE) 557 3.5 -16.5°
Enters shadow 10:40:14 31° 41° (NE) 968 4.4 -16.9°
